Regional Weather Roundup
Issued by NWS San Angelo, TX

Home | Current Version | Previous Version | Text Only | Print | Product List | Glossary On
Versions: 1 2 3 4 5 6 7 8 9 10 11 12 13 14 15 16 17 18 19 20 21 22 23 24 25 26 27 28 29 30 31 32 33 34 35 36 37 38 39 40 41 42 43 44 45 46 47 48 49 50
000
ASUS44 KSJT 041210
RWRSJT
WEST CENTRAL TEXAS REGIONAL WEATHER ROUNDUP
NATIONAL WEATHER SERVICE SAN ANGELO TX
700 AM CDT MON MAY 04 2015

NOTE: "FAIR" INDICATES FEW OR NO CLOUDS BELOW 12,000 FEET WITH NO
SIGNIFICANT WEATHER AND/OR OBSTRUCTIONS TO VISIBILITY.

TXZ049-054-064>066-071>073-076>078-098-099-113-114-127-128-139-140-
154-155-168>170-041300
...LOCATIONS ACROSS WEST CENTRAL TEXAS...

CITY           SKY/WX    TMP DP  RH WIND       PRES   REMARKS
SAN ANGELO     CLEAR     67  60  78 S7        29.97R
ABILENE        CLOUDY    63  60  90 S7        30.01R
DYESS AFB      CLOUDY    63  61  92 S10       29.99R
JUNCTION       LGT RAIN  69  63  81 SE6       29.99R
SWEETWATER     CLEAR     62  59  91 SE8       30.01R
BROWNWOOD      PTCLDY    63  61  94 SE6       30.01R
COLEMAN        MOSUNNY   62  60  95 S5        30.01R
SONORA         MOCLDY    66  66 100 SE8       30.01S
OZONA          CLOUDY    68  61  77 SE13      29.97R
BRADY          CLOUDY    63  61  94 SE6       30.01R
$$

TEXAS PANHANDLE/OKLAHOMA PANHANDLE

CITY           SKY/WX    TMP DP  RH WIND       PRES   REMARKS
AMARILLO       PTCLDY    58  52  80 SE9       29.99R
BORGER         MOCLDY    61  53  75 SE7       29.95F
CANADIAN       PTCLDY    58  56  95 CALM      29.95S
DALHART        CLOUDY    57  49  74 W7        29.99R
DUMAS          CLOUDY    56  51  82 S7        29.98R
GUYMON         NOT AVBL
HEREFORD       MOSUNNY   53  50  89 MISG      30.02R
PAMPA          MOSUNNY   57  55  92 SE6       29.98R
PERRYTON       MOCLDY    58  56  92 SE5       29.96R
$$

SOUTHERN PANHANDLE/SOUTH PLAINS/ROLLING PLAINS

CITY           SKY/WX    TMP DP  RH WIND       PRES   REMARKS
LUBBOCK        PTCLDY    57  52  83 NE6       29.99R
SNYDER         CLEAR     61  57  88 SE9       29.97R
CHILDRESS      CLEAR     61  55  81 S10       29.97S
SEMINOLE       PTSUNNY   56  53  88 E8        29.96R
$$

PERMIAN BASIN

CITY           SKY/WX    TMP DP  RH WIND       PRES   REMARKS
MIDLAND        CLOUDY    66  59  78 SE13      29.92R
ODESSA         CLOUDY    66  58  75 S9        29.94R
WINK           LGT RAIN  67  57  70 CALM      29.93R
$$

FAR WEST/SOUTHWEST MOUNTAINS/TRANS PECOS

CITY           SKY/WX    TMP DP  RH WIND       PRES   REMARKS
ALPINE         SUNNY     52  50  94 N3        30.04R
DRYDEN           N/A     69  65  86 E14G23    29.91R
EL PASO        PTCLDY    65  47  52 N12       29.92R
FORT STOCKTON  CLEAR     64  60  87 SE13      29.91S
GUADALUPE PASS LGT RAIN  59  43  55 E21       30.01S
MARFA          CLEAR     52  50  93 NE6       30.00S
PECOS          MOSUNNY   65  57  74 CALM      29.91R
$$

DALLAS/FORT WORTH METROPLEX

CITY           SKY/WX    TMP DP  RH WIND       PRES   REMARKS
DFW AIRPORT    MOCLDY    66  63  90 S12       30.03R
FTW MEACHAM    CLEAR     66  62  87 S9        30.02R
DAL-EXECUTIVE  CLOUDY    65  62  90 S7        30.04R
GRAND PRAIRIE  PTCLDY    66  63  88 SE7       30.05R
ADDISON        CLOUDY    68  63  83 S8        30.05R
MESQUITE       PTSUNNY   63  61  94 SE5       30.05R
LANCASTER      MOSUNNY   62  59  92 SE6       30.06R
$$

NORTH CENTRAL TEXAS

CITY           SKY/WX    TMP DP  RH WIND       PRES   REMARKS
SHRMAN/DENISON SUNNY     65  64  97 SE8       30.06R
GAINESVILLE    CLEAR     61  59  94 SE5       30.06R
BRIDGEPORT     SUNNY     59  59 100 CALM      30.03R
DENTON         CLEAR     64  62  93 SE8       30.03R
WAXAHACHIE     CLOUDY    64  64 100 SE6       30.06R
GRANBURY       MOSUNNY   65  62  88 E7        30.04R
$$

WESTERN NORTH TEXAS

CITY           SKY/WX    TMP DP  RH WIND       PRES   REMARKS
WICHITA FALLS  PTCLDY    62  59  90 S12       29.98R
VERNON         SUNNY     61  54  76 S5        30.00R
BRECKENRIDGE   SUNNY     64  60  86 S6        30.01R
COMANCHE       CLEAR     62  62 100 S7        30.01R
$$

CENTRAL AND SOUTH CENTRAL TEXAS

CITY           SKY/WX    TMP DP  RH WIND       PRES   REMARKS
AUSTIN/BERGSTM CLOUDY    64  64 100 E3        30.02R
WACO           CLOUDY    64  62  93 SE7       30.04R
HILLSBORO      CLOUDY    65  62  90 SE7       30.05R
TEMPLE         CLOUDY    64  59  82 SE6       30.03R
KILLEEN-GRAY   CLOUDY    66  64  91 S10       30.02R
FORT HOOD      CLOUDY    66  64  94 S12G18    30.02R FOG
GEORGETOWN     CLOUDY    66  64  94 SE7       30.02R
LAGO VISTA     CLOUDY    66  64  93 SE9G17    30.02S
SAN MARCOS     PTCLDY    63  61  94 E6        30.02S FOG
NEW BRAUNFELS  PTCLDY    66  64  93 SE8       29.99S FOG
RANDOLPH AFB   MOCLDY    66  66  99 E7        30.00R
SAN ANTONIO    CLOUDY    69  65  86 SE10      30.00R
STINSON        CLOUDY    68  65  90 SE8       29.98R
PLEASANTON     NOT AVBL
LA GRANGE      PTCLDY    65  65  97 CALM      30.02R FOG
GIDDINGS       PTSUNNY   64  63  95 SE3       30.07R
$$

EAST TEXAS

CITY           SKY/WX    TMP DP  RH WIND       PRES   REMARKS
PARIS          CLEAR     61  54  77 MISG      30.08R
CLARKSVILLE    NOT AVBL
TYLER          CLEAR     63  58  83 SE7       30.08R
LONGVIEW       CLEAR     60  57  89 E3        30.10R
PALESTINE      PTSUNNY   64  61  90 E5        30.09R
NACOGDOCHES      N/A     54  52  94 CALM      30.10R
$$

TEXAS HILL COUNTRY AND EDWARDS PLATEAU

CITY           SKY/WX    TMP DP  RH WIND       PRES   REMARKS
LLANO          CLOUDY    64  64 100 E3        30.03R
HORSESHOE BAY  CLOUDY    67  64  90 SE6       30.01R
KERRVILLE      LGT RAIN  66  64  92 S14       30.00R
FREDERICKSBRG  CLOUDY    66  63  90 SE6       30.00R
ROCKSPRINGS    CLOUDY    64  64 100 SE9       30.02R
HONDO          CLOUDY    69  66  90 SE10      29.99S
UVALDE         CLOUDY    69  66  93 E9        29.97R
DEL RIO        CLOUDY    70  67  90 E10       29.92R
$$

SOUTHEAST TEXAS

CITY           SKY/WX    TMP DP  RH WIND       PRES   REMARKS
COLLEGE STN    PTCLDY    63  61  93 SE6       30.04R
CALDWELL       PTSUNNY   63  63 100 CALM      30.07R FOG
CROCKETT       NOT AVBL
BRENHAM        CLEAR     63  62  98 CALM      30.05R FOG
HUNTSVILLE     CLEAR     66  62  87 CALM      30.06R
CONROE         CLEAR     56  54  93 CALM      30.06R
HOUSTON BUSH   PTCLDY    62  61  96 E3        30.05R
HOUSTON HOBBY  PTCLDY    66  62  87 E3        30.04R
PERLAND        CLEAR     65  62  90 E3        30.05R
WHARTON        SUNNY     64  63  96 E5        30.04R
$$

THE UPPER TEXAS COAST

CITY           SKY/WX    TMP DP  RH WIND       PRES   REMARKS
ORANGE         SUNNY     58  56  93 CALM      30.09R FOG
PORT ARTHUR    CLEAR     62  60  93 CALM      30.07R
GALVESTON      CLEAR     72  64  76 SE10      30.05R
ANGLETON       CLEAR     62  62 100 CALM      30.03R
BAY CITY       SUNNY     67  66  97 E5        30.03R
$$

TEXAS COASTAL BEND, RIO GRANDE PLAINS DEEP SOUTH TEXAS

CITY           SKY/WX    TMP DP  RH WIND       PRES   REMARKS
VICTORIA       CLOUDY    67  67 100 E3        30.02R
BEEVILLE       FAIR      68  68 100 E5        29.99R
ROCKPORT       PTCLDY    74  67  78 SE13      29.99R
PORT ARANSAS   CLOUDY    74  69  85 SE13G20   29.98R
PORT LAVACA    PTSUNNY   71  67  88 SE7       30.02R
CORPUS CHRISTI MOCLDY    72  68  87 SE9       29.98R
KINGSVILLE NAS MOCLDY    72  71  97 SE7       29.97R
COTULLA        CLOUDY    73  66  78 SE13      29.96R
LAREDO         MOCLDY    73  68  84 SE13      29.94R
BROWNSVILLE    MOCLDY    74  68  81 SE13      29.95R
PORT ISABEL    MOCLDY    74  68  81 SE13      29.94R
HEBBRONVILLE     N/A     72  68  89 SE10      29.96R
MCALLEN        CLOUDY    76  70  82 SE9       29.93R
WESLACO        CLOUDY    74  67  80 SE10      29.93R
FALFURRIAS     PTSUNNY   71  68  90 E7        29.95R
EDINBURG       CLOUDY    73  69  86 E8        29.94R
$$


USA.gov is the U.S. government's official web portal to all federal, state and local government web resources and services.